Location: Blazny
(46.0612°N, 84.4033°W)
Time: 19:26:59
(UTC-04:00)

Envisat - Pass Details

Date: 16 September 2024
Orbit: 762 x 764 km, 98.3° (Epoch: 11 October)

Event Time Altitude Azimuth Distance (km) Brightness Sun altitude
Rises 06:08:58 0° 2° (N) 3,238 6.5 -12.5°
Reaches altitude 10° 06:11:42 10° 348° (NNW) 2,307 5.5 -12.1°
Maximum altitude 06:15:33 22° 298° (WNW) 1,611 4.3 -11.4°
Enters shadow 06:18:19 15° 258° (WSW) 1,992 4.5 -11.0°
